This demonstration page uses our WeatherBlox Daily Observations layout. Learn more.

Hourly Observations for June 8, 2017

Temp ( °F °C ) Dew Point ( °F °C ) Humidity (%) Winds ( mph kmh ) Pressure ( in mb ) Visibility ( mi km ) Precip ( " mm )
12:54 am 00:54 Clear 63 17.2 48 8.9 58 58 S 6 9 30.02 1017 10 16.0934 0 0
1:54 am 01:54 Clear 62 16.7 49 9.4 62 62 SSE 5 7 30.01 1016 8 12.87472 0 0
2:54 am 02:54 Clear 62 16.7 49 9.4 62 62 SSE 3 6 30.01 1016 10 16.0934 0 0
3:54 am 03:54 Clear 61 16.1 49 9.4 65 65 SSE 3 6 30.01 1016 10 16.0934 0 0
4:54 am 04:54 Clear 62 16.7 49 9.4 62 62 Calm 30 1016 10 16.0934 0 0
5:54 am 05:54 Clear 61 16.1 49 9.4 65 65 SW 3 6 30.01 1016 10 16.0934 0 0
6:54 am 06:54 Sunny 62 16.7 52 11.1 70 70 SE 3 6 30.02 1017 10 16.0934 0 0
7:54 am 07:54 Sunny 68 20 53 11.7 59 59 SSW 7 11 30.02 1017 10 16.0934 0 0
8:54 am 08:54 Sunny 74 23.3 53 11.7 48 48 S 7 11 30.01 1016 10 16.0934 0 0
9:54 am 09:54 Sunny 77 25 51 10.6 40 40 SSW 8 13 30 1016 10 16.0934 0 0
10:54 am 10:54 Sunny 80 26.7 50 10 35 35 S 8 13 29.98 1015 10 16.0934 0 0
11:54 am 11:54 Sunny 82 27.8 49 9.4 32 32 S 8 13 29.97 1015 10 16.0934 0 0
12:54 pm 12:54 Sunny 84 28.9 49 9.4 30 30 S 9 15 29.95 1014 10 16.0934 0 0
1:54 pm 13:54 Sunny 87 30.6 51 10.6 29 29 SSE 16 26 29.92 1013 10 16.0934 0 0
2:54 pm 14:54 Sunny 88 31.1 50 10 27 27 S 15 24 29.9 1013 10 16.0934 0 0
3:54 pm 15:54 Sunny 87 30.6 44 6.7 22 22 SSE 7 11 29.88 1012 10 16.0934 0 0
4:54 pm 16:54 Sunny 89 31.7 42 5.6 19 19 SSW 13 20 29.86 1011 10 16.0934 0 0
5:54 pm 17:54 Sunny 87 30.6 47 8.3 25 25 S 14 22 29.83 1010 10 16.0934 0 0
6:54 pm 18:54 Sunny 86 30 50 10 29 29 SSW 10 17 29.83 1010 10 16.0934 0 0
7:54 pm 19:54 Sunny 81 27.2 51 10.6 35 35 S 8 13 29.82 1010 10 16.0934 0 0
8:54 pm 20:54 Sunny 75 23.9 52 11.1 45 45 S 7 11 29.83 1010 10 16.0934 0 0
9:54 pm 21:54 Clear 72 22.2 52 11.1 50 50 S 8 13 29.83 1010 10 16.0934 0 0
10:54 pm 22:54 Clear 68 20 53 11.7 59 59 S 9 15 29.84 1010 10 16.0934 0 0
11:54 pm 23:54 Clear 70 21.1 55 12.8 59 59 S 10 17 29.83 1010 10 16.0934 0 0

Powered by AerisWeather